Weather History for Lowell, ID

Change the Weather History Date:

Wednesday, October 3, 2012

  Actual Average Record
Temperature  
Mean Temperature 51 °F -  
Max Temperature 68 °F 65 °F 81 °F (2003)
Min Temperature 34 °F 41 °F 30 °F (1999)
Degree Days  
Heating Degree Days 14    
Growing Degree Days 1 (Base 50)    
Moisture  
Dew Point 26 °F    
Average Humidity 45    
Maximum Humidity 77    
Minimum Humidity 20    
Precipitation  
Precipitation 0.00 in - - ()
Sea Level Pressure  
Sea Level Pressure 30.33 in    
Wind  
Wind Speed 1 mph (NNW)    
Max Wind Speed 4 mph    
Max Gust Speed -    
Averages and records for this station are not official NWS values.
T = Trace of Precipitation, MM = Missing Value Source: NWS Daily Summary

Daily Weather History Graph

Daily Weather History Graph

Search for Another Location

Airport:

Trip Planner

Search our weather history database for the weather conditions in past years. The results will help you decide how hot, cold, wet, or windy it might be!

Date:

Astronomy

Oct. 03, 2012 Rise Set
Actual Time 7:44 AM MDT 7:17 PM MDT
Civil Twilight 7:14 AM MDT 7:47 PM MDT
Nautical Twilight 6:39 AM MDT 8:21 PM MDT
Astronomical Twilight 6:04 AM MDT 8:56 PM MDT
Moon 8:58 PM MDT (10/3) 11:25 AM MDT (10/3)
Length of Visible Light 12h 32m
Length of Day
11h 33m
Waning Gibbous, 88% of the Moon is Illuminated
Oct 3
Waning Gibbous
Oct 8
Last Quarter
Oct 15
New
Oct 21
First Quarter
Oct 29
Full

Hourly Weather History & Observations

Time (MDT) Temp. Windchill Dew Point Humidity Pressure Visibility Wind Dir Wind Speed Gust Speed Precip Events Conditions
12:52 AM 55.9 °F - 17.1 °F 22% 30.07 in - Calm Calm - N/A   Unknown
1:52 AM 51.1 °F - 15.1 °F 24% 30.14 in - Calm Calm - N/A   Unknown
2:52 AM 46.0 °F - 21.9 °F 39% 30.20 in - Calm Calm - N/A   Unknown
3:52 AM 43.0 °F - 23.0 °F 45% 30.24 in - Calm Calm - N/A   Unknown
4:52 AM 41.0 °F 39.0 °F 23.0 °F 49% 30.28 in - North 3.5 mph - N/A   Unknown
5:52 AM 39.0 °F 36.8 °F 21.9 °F 50% 30.32 in - North 3.5 mph - N/A   Unknown
6:52 AM 37.0 °F - 23.0 °F 57% 30.38 in - Calm Calm - N/A   Unknown
7:52 AM 34.0 °F - 24.1 °F 67% 30.43 in - Calm Calm - N/A   Unknown
8:52 AM 35.1 °F 32.2 °F 24.1 °F 64% 30.46 in - NNW 3.5 mph - N/A   Unknown
9:52 AM 39.9 °F - 25.0 °F 55% 30.46 in - Calm Calm - N/A   Unknown
10:52 AM 51.1 °F - 21.9 °F 32% 30.43 in - Calm Calm - N/A   Unknown
11:52 AM 52.0 °F - 21.0 °F 30% 30.41 in - North 3.5 mph - N/A   Unknown
12:52 PM 55.9 °F - 19.0 °F 24% 30.38 in - Calm Calm - N/A   Unknown
1:52 PM 61.0 °F - 21.0 °F 21% 30.35 in - Variable 3.5 mph - N/A   Unknown
2:52 PM 63.0 °F - 21.9 °F 21% 30.32 in - South 3.5 mph - N/A   Unknown
3:52 PM 68.0 °F - 25.0 °F 20% 30.30 in - Calm Calm - N/A   Unknown
4:52 PM 61.0 °F - 30.0 °F 31% 30.30 in - Calm Calm - N/A   Unknown
5:52 PM 57.0 °F - 33.1 °F 40% 30.30 in - Calm Calm - N/A   Unknown
6:52 PM 52.0 °F - 36.0 °F 54% 30.31 in - Calm Calm - N/A   Unknown
7:52 PM 48.0 °F - 35.1 °F 61% 30.33 in - Calm Calm - N/A   Unknown
8:52 PM 45.0 °F - 34.0 °F 65% 30.35 in - Calm Calm - N/A   Unknown
9:52 PM 43.0 °F - 34.0 °F 71% 30.35 in - Calm Calm - N/A   Unknown
10:52 PM 42.1 °F 40.2 °F 34.0 °F 73% 30.35 in - NNW 3.5 mph - N/A   Unknown
11:52 PM 39.9 °F - 33.1 °F 77% 30.36 in - Calm Calm - N/A   Unknown